Regional Weather Roundup
Issued by NWS

Home | Current Version | Previous Version | Graphics & Text | Print | Product List | Glossary On
Versions: 1 2 3 4 5 6 7 8 9 10 11 12 13 14 15 16 17 18 19 20 21 22 23 24 25 26 27 28 29 30 31 32 33 34 35 36 37 38 39 40 41 42 43 44 45 46 47 48 49 50
000
ASUS44 KMEG 160010
RWRTN
TENNESSEE HOURLY STATE WEATHER ROUNDUP
NATIONAL WEATHER SERVICE MEMPHIS TN
600 PM CST SUN JAN 15 2017

TNZ002-004-019-021-049-052-054-088>092-160100-
WEST TENNESSEE

CITY           SKY/WX    TMP DP  RH WIND       PRES   REMARKS
MEMPHIS INTL   MOCLDY    54  50  86 NE9       30.20S
NWS MEMPHIS      N/A     52 N/A N/A MISG        N/A
JACKSON        MOCLDY    52  51  97 NE5       30.23S
DYERSBURG      CLOUDY    46  45  93 E7        30.24S
UNION CITY     CLOUDY   N/A N/A N/A CALM      30.25R
PARIS          CLOUDY    43  43 100 CALM      30.26R
HUNTINGDON     CLOUDY    48  48 100 NE7       30.25R FOG
$$

TNZ008-025-027-028-033-062-065-066-160100-
NORTH MIDDLE TENNESSEE

CITY           SKY/WX    TMP DP  RH WIND       PRES   REMARKS
NASHVILLE      CLOUDY    53  48  83 N6        30.27R
PORTLAND       FOG       46  46 100 CALM      30.28R VSB 0
CLARKSVILLE    FOG       46  44  93 NE6       30.28S VSB 1/2
SMYRNA         CLOUDY    54  50  86 N7        30.27R
GALLATIN       CLOUDY    52  50  93 N7        30.30R
CROSSVILLE     PTCLDY    56  53  90 CALM      30.27R
$$

TNZ061-075-076-078-094-096-097-160100-
SOUTH MIDDLE TENNESSEE

CITY           SKY/WX    TMP DP  RH WIND       PRES   REMARKS
FAYETTEVILLE   PTCLDY    61  57  88 CALM      30.24S
TULLAHOMA      CLEAR     57  54  88 CALM      30.25S
WINCHESTER     CLEAR     57  54  88 CALM      30.25R
MCMINNVILLE    MOCLDY    59  57  94 CALM      30.25R
COLUMBIA       CLOUDY   N/A N/A N/A CALM      30.22S
SHELBYVILLE    PTCLDY    63  59  88 MISG      30.25R
$$

TNZ017-018-042-046-047-160100-
NORTHEAST TENNESSEE

CITY           SKY/WX    TMP DP  RH WIND       PRES   REMARKS
TRI CITIES     CLOUDY    57  54  89 W5        30.28R
ELIZABETHTON   CLOUDY    57  55  94 CALM      30.28R FOG
$$

TNZ012-013-036-069-073-074-160100-
CENTRAL EAST TENNESSEE

CITY           SKY/WX    TMP DP  RH WIND       PRES   REMARKS
KNOXVILLE      PTCLDY    59  55  87 NE8       30.24S
OAK RIDGE      MOCLDY    59  55  87 CALM      30.26S
GATLINBURG     CLOUDY    57  55  94 CALM      30.26R
MORRISTOWN     CLOUDY    55  55 100 SE3       30.26R
JACKSBORO      CLOUDY    55  54  94 CALM      30.29S
$$

TNZ083-085-099-160100-
SOUTHEAST TENNESSEE

CITY           SKY/WX    TMP DP  RH WIND       PRES   REMARKS
CHATTANOOGA    MOCLDY    66  52  60 CALM      30.24R
$$

SKY/WX REPORTED AS FAIR MEANS FEW OR NO CLOUDS BELOW
12 THOUSAND FEET.





USA.gov is the U.S. government's official web portal to all federal, state and local government web resources and services.